Other Public Products
Issued by NWS Grand Forks, ND

Home | Current Version | Previous Version | Text Only | Print | Product List | Glossary Off
Versions: 1 2 3 4 5 6 7 8 9 10 11 12 13 14 15 16 17 18 19 20 21 22 23 24 25 26 27 28 29 30 31 32 33 34 35 36 37 38 39 40 41 42 43 44 45 46 47 48 49 50

000
FPUS83 KFGF 300531
OPUFGF
PRAIRIE TO PINES WEATHER ROUNDUP
NATIONAL WEATHER SERVICE EASTERN NORTH DAKOTA/GRAND FORKS ND
1200 AM CDT SAT AUG 30 2014

 **SATELLITE DATA USED TO AUGMENT SKY COVER AT AUTOMATED STATIONS**
 *****  WEATHER ACROSS EASTERN NORTH DAKOTA  *****

CITY           SKY/WX    TMP DP  RH WIND       PRES   REMARKS
GRAND FORKS    PTCLDY    58  54  86 N12       29.91S
GRAND FORKS AF PTCLDY    57  57  99 N10       29.93S
GRAND CITY NWS   N/A     57 N/A N/A VRB10       N/A
BUXTON           N/A     60  57  89 N8          N/A
DEVILS LAKE    CLEAR     54  45  71 NE7       29.96S
FARGO          CLOUDY    62  57  83 N18       29.87R
WAHPETON ARPT  CLOUDY    61  55  82 N18G24    29.85S
$$

 *****  WEATHER ACROSS CENTRAL AND WESTERN NORTH DAKOTA  *****

CITY           SKY/WX    TMP DP  RH WIND       PRES   REMARKS
JAMESTOWN      CLOUDY    60  56  86 N7        29.94S
BISMARCK       CLEAR     56  53  90 CALM      29.99R
MINOT          CLEAR     54  49  83 S5        29.96S
MINOT AFB      CLEAR     52  51  94 SW6       29.96S
GARRISON         N/A     52  50  93 CALM      29.98S
WILLISTON      CLEAR     55  49  80 CALM      29.96S
DICKINSON      CLEAR     52  48  86 SE7       29.98S
HETTINGER      CLEAR     56  51  84 E7        30.01S
$$

 *****  OTHER OBSERVATIONS NORTHEAST NORTH DAKOTA  *****

CITY           SKY/WX    TMP DP  RH WIND       PRES   REMARKS
WALHALLA         N/A     50  50 100 NW6       29.97S
LANGDON        FAIR      46  45  93 N8        29.97S
CAVALIER       FAIR      54  50  87 N7        29.96S
GRAFTON        FAIR      54  54 100 N8        29.94S
CANDO          FAIR      48  48 100 N5        29.98S
FORT TOTTEN      N/A     57  51  81 NE5       29.95S
ROLLA          FAIR      45  45 100 CALM      30.00S
RUGBY          FAIR      48  48 100 E6        29.98R
 ***** THE ABOVE OBSERVATIONS ARE NON NWS ARE NOT QUALITY
        CONTROLLED AND MAY MIS-REPORT RAIN FOR SNOW...
$$

 *****  OTHER OBSERVATIONS SOUTHEAST NORTH DAKOTA *****

CITY           SKY/WX    TMP DP  RH WIND       PRES   REMARKS
COOPERSTOWN    NOT AVBL
VALLEY CITY    CLOUDY    59  59 100 N13G21    29.92S
OAKES            N/A     59  59 100 N10       29.92R
GWINNER        CLOUDY    61  57  88 N16       29.91R
SHEYENNE NWR     N/A     61  56  85 N8        29.95S
BUFFALO          N/A     60  53  79 CALM        N/A
WYNDMERE       NOT AVBL
 ***** THE ABOVE OBSERVATIONS ARE NON NWS ARE NOT QUALITY
       CONTROLLED AND MAY MIS-REPORT RAIN FOR SNOW...
$$

  *****  WEATHER ACROSS NORTHERN MINNESOTA  *****

CITY           SKY/WX    TMP DP  RH WIND       PRES   REMARKS
FLAG ISLAND    CLEAR     61  55  82 N10       29.89S
WARROAD        CLEAR     54  50  87 NW5       29.91S
ROSEAU         CLEAR     54  48  82 N8        29.91S
HALLOCK        CLEAR     54  48  82 N8        29.93S
THF RVR FALLS  CLOUDY    61  55  82 N13       29.90S
HALSTAD          N/A     60  57  89 N12         N/A
FOSSTON        CLOUDY    57  55  94 N10G16    29.88S
BAUDETTE       PTCLDY    58  56  93 N10       29.87S
WASKISH        CLOUDY    57  55  94 N5        29.86S
CROOKSTON      CLOUDY    61  55  82 N12       29.91R
$$
  *****  WEATHER ACROSS CENTRAL AND WEST MINNESOTA  *****

CITY           SKY/WX    TMP DP  RH WIND       PRES   REMARKS
BEMIDJI        CLOUDY    61  58  91 N12       29.85R
PARK RAPIDS    CLOUDY    66  64  93 N6        29.82S
WADENA         CLOUDY    64  63  94 CALM      29.82S
DETROIT LAKES  CLOUDY    63  63 100 N13       29.85S
MOORHEAD       CLOUDY    61  61 100 N12       29.88R
FERGUS FALLS   CLOUDY    63  61  94 N10G16    29.84R
ELBOW LAKE     CLOUDY    64  64  97 NW10      29.83S
MORRIS MN      MOCLDY    66  64  94 NW7       29.82R
STAPLES        MOCLDY    64  63  94 NW5       29.81F
WHEATON        CLOUDY    61  57  88 N15       29.87R
$$
  *****  WEATHER ELSEWHERE ACROSS MINNESOTA  *****

CITY           SKY/WX    TMP DP  RH WIND       PRES   REMARKS
DULUTH         CLOUDY    64  61  90 N6        29.80S
INTRNTL FALLS  CLOUDY    59  57  93 N10       29.84R
ELY            CLOUDY    61  57  88 CALM      29.81S
CLOQUET        FOG       63  61  94 CALM      29.80S VSB 3/4
BRAINERD       CLOUDY    64  64 100 CALM      29.81S
HIBBING        CLOUDY    62  59  90 CALM      29.81S FOG
ALEXANDRIA     CLOUDY    66  64  93 N7        29.84R
SAINT CLOUD    CLOUDY    70  67  90 N3        29.79S
MINNEAPOLIS    LGT RAIN  69  69 100 NE7       29.77R FOG
$$

  *****  WEATHER ACROSS SOUTH DAKOTA  *****

CITY           SKY/WX    TMP DP  RH WIND       PRES   REMARKS
SIOUX FALLS    MOCLDY    65  63  93 CALM      29.84R
BROOKINGS      NOT AVBL
WATERTOWN      CLOUDY    64  62  93 N14       29.87R
HURON          MOCLDY    63  59  87 N12       29.89R
SISSETON         N/A     63  60  90 N14       29.86R
ABERDEEN       CLOUDY    60  57  89 N13       29.91S
MITCHELL       MOCLDY    66  63  90 N12       29.89R
PIERRE         CLEAR     58  57  97 N9        29.95R
MOBRIDGE       CLEAR     54  54 100 N5        29.96R
RAPID CITY     PTCLDY    60  53  77 CALM      30.04R
$$

  *****  SOME WEATHER IN NEARBY STATES *****

CITY           SKY/WX    TMP DP  RH WIND       PRES   REMARKS
GLASGOW MT     CLEAR     59  52  77 E10       29.89F
GREAT FALLS MT CLEAR     61  44  53 SW10      29.79F
CHEYENNE WY    CLEAR     54  48  80 W6        30.18S
SCOTTSBLUFF NE MOCLDY    63  57  81 SE6       30.09R
OMAHA NE       CLEAR     69  65  86 CALM      29.83S
DES MOINES IA  LGT RAIN  70  67  90 SW9       29.81R
DAVENPORT IA   CLOUDY    71  68  90 S14       29.83R
CHICAGO IL     CLOUDY    75  67  76 S12       29.86F
EAU CLAIRE WI  RAIN      67  66  97 NW9       29.77F
LA CROSSE WI   LGT RAIN  70  67  90 NE3       29.75F FOG
$$

  *****  SOME NATIONAL WEATHER *****

CITY           SKY/WX    TMP DP  RH WIND       PRES   REMARKS
LA GUARDIA NY  PTCLDY    68  54  60 SE6       30.25S
RALEIGH NC     MOCLDY    75  69  81 E5        30.18F
ATLANTA GA     MOCLDY    80  61  52 S6        30.12R
NEW ORLEANS LA CLOUDY    78  73  84 SE7       30.02R
OKLAHOMA CITY  PTCLDY    70  66  87 SE7       29.93R
ALBUQUERQUE NM CLEAR     71  41  33 E7        30.14R
SALT LAKE CITY MOCLDY    78  39  24 SE13      29.95S
LOS ANGELES CA CLEAR     69  63  81 SW3       29.84R
BOISE ID       CLOUDY    80  42  25 S5        29.79S
SEATTLE WA     PTCLDY    64  54  69 SW9       29.96S
$$

*** WEATHER ACROSS MANITOBA...SASKATCHEWAN AND ONTARIO ***
                ***ONTARIO***

CITY           SKY/WX    TMP DP  RH WIND       PRES   REMARKS
GERALDTON      FOG       54  54 100 CALM      29.79  VSB 3/4
THUNDER BAY    CLOUDY    57  57 100 SW2       29.79F
SIOUX LOOKOUT  PTCLDY    55  55 100 N3        29.86S
TORONTO        MOCLDY    64  59  82 SE6       30.09F
BIG TROUT LK   CLOUDY    52  48  87 N6        29.86R
PICKLE LAKE    NOT AVBL
DRYDEN         PTCLDY    55  55 100 NW6       29.88R
KENORA         PTCLDY    55  54  94 N6        29.91R
$$
                *** MANITOBA***

CITY           SKY/WX    TMP DP  RH WIND       PRES   REMARKS
BRANDON        CLEAR     48  45  87 E7        29.98F
DAUPHIN        CLEAR     46  45  93 VRB2      29.97S
ISLAND LAKE    CLOUDY    54  43  66 NW10      29.95R
PILOT MOUND      N/A     48  45  87 E5          N/A
THE PAS        PTCLDY    46  45  93 CALM      29.93F
THOMPSON       MOCLDY    48  46  93 W2        29.93F
WINNIPEG       CLEAR     50  45  81 N6        29.96S
LYNN LAKE      CLEAR     43  41  93 MISG      29.91S
CHURCHILL      MOCLDY    50  41  71 W14       29.77S
GILLAM         MOCLDY    54  37  54 NW14      29.89R
$$
                ***SASKATCHEWAN***

CITY           SKY/WX    TMP DP  RH WIND       PRES   REMARKS
ESTEVAN        PTCLDY    52  46  82 E8        29.95F
KINDERSLEY     MOCLDY    61  52  72 SE12G20   29.73F
LLOYDMINSTER   CLEAR     55  45  67 SE16G25   29.70F
PRINCE ALBERT  PTCLDY    52  45  76 E5        29.88F
REGINA         CLEAR     55  45  67 SE12      29.92F


USA.gov is the U.S. government's official web portal to all federal, state and local government web resources and services.